Hourly Weather Samozvanovka

Today, 2 October, Friday

Time Temperature Precipitation Wind Pressure Humidity
00:00 +13°C° 0 mm 5 mps 746 mmHg 46%
01:00 +12°C° 0 mm 5 mps 746 mmHg 47%
02:00 +12°C° 0 mm 5 mps 746 mmHg 47%
03:00 +12°C° 0 mm 5 mps 746 mmHg 49%
04:00 +10°C° 0 mm 5 mps 746 mmHg 50%
05:00 +10°C° 0 mm 5 mps 746 mmHg 52%
06:00 +10°C° 0 mm 5 mps 746 mmHg 52%
07:00 +12°C° 0 mm 5 mps 746 mmHg 53%
08:00 +13°C° 0 mm 6 mps 747 mmHg 53%
09:00 +14°C° 0 mm 6 mps 747 mmHg 51%
10:00 +15°C° 0 mm 6 mps 747 mmHg 49%
11:00 +16°C° 0 mm 6 mps 747 mmHg 46%
12:00 +17°C° 0 mm 6 mps 747 mmHg 45%
13:00 +17°C° 0 mm 6 mps 747 mmHg 44%
14:00 +19°C° 0 mm 6 mps 747 mmHg 43%
15:00 +17°C° 0 mm 6 mps 747 mmHg 46%
16:00 +16°C° 0 mm 5 mps 747 mmHg 49%
17:00 +15°C° 0 mm 4 mps 747 mmHg 52%
18:00 +14°C° 0 mm 4 mps 747 mmHg 53%
19:00 +14°C° 0 mm 4 mps 747 mmHg 54%
20:00 +13°C° 0 mm 5 mps 747 mmHg 55%
21:00 +13°C° 0 mm 5 mps 747 mmHg 55%
22:00 +13°C° 0 mm 5 mps 747 mmHg 55%
23:00 +13°C° 0 mm 5 mps 747 mmHg 55%

Tomorrow, 3 October, Saturday

Time Temperature Precipitation Wind Pressure Humidity
00:00 +13°C° 0 mm 5 mps 747 mmHg 55%
01:00 +12°C° 0 mm 5 mps 747 mmHg 55%
02:00 +12°C° 0 mm 4 mps 748 mmHg 55%
03:00 +12°C° 0 mm 4 mps 748 mmHg 56%
04:00 +11°C° 0 mm 4 mps 747 mmHg 57%
05:00 +11°C° 0 mm 4 mps 747 mmHg 57%
06:00 +12°C° 0 mm 4 mps 748 mmHg 57%
07:00 +12°C° 0 mm 5 mps 748 mmHg 56%
08:00 +13°C° 0 mm 5 mps 748 mmHg 55%
09:00 +14°C° 0 mm 5 mps 748 mmHg 52%
10:00 +15°C° 0 mm 5 mps 748 mmHg 49%
11:00 +16°C° 0 mm 5 mps 748 mmHg 47%
12:00 +17°C° 0 mm 5 mps 748 mmHg 44%
13:00 +17°C° 0 mm 5 mps 748 mmHg 41%
14:00 +19°C° 0 mm 5 mps 748 mmHg 39%
15:00 +17°C° 0 mm 5 mps 748 mmHg 43%
16:00 +15°C° 0 mm 4 mps 748 mmHg 47%
17:00 +14°C° 0 mm 4 mps 748 mmHg 50%
18:00 +14°C° 0.1 mm 4 mps 748 mmHg 51%
19:00 +14°C° 0.1 mm 4 mps 748 mmHg 51%
20:00 +14°C° 0.1 mm 5 mps 749 mmHg 51%
21:00 +14°C° 0 mm 5 mps 749 mmHg 51%
22:00 +13°C° 0 mm 5 mps 749 mmHg 51%
23:00 +13°C° 0 mm 5 mps 749 mmHg 51%

Day after tomorrow, 4 October, Sunday

Time Temperature Precipitation Wind Pressure Humidity
00:00 +12°C° 0 mm 4 mps 749 mmHg 52%
01:00 +11°C° 0 mm 4 mps 749 mmHg 54%
02:00 +11°C° 0 mm 4 mps 749 mmHg 55%
03:00 +10°C° 0 mm 3 mps 749 mmHg 57%
04:00 +10°C° 0 mm 3 mps 749 mmHg 58%
05:00 +9°C° 0 mm 3 mps 749 mmHg 59%
06:00 +10°C° 0 mm 3 mps 750 mmHg 57%
07:00 +11°C° 0 mm 4 mps 750 mmHg 54%
08:00 +13°C° 0 mm 4 mps 750 mmHg 52%
09:00 +14°C° 0 mm 4 mps 750 mmHg 47%
10:00 +16°C° 0 mm 5 mps 750 mmHg 43%
11:00 +17°C° 0 mm 5 mps 750 mmHg 38%
12:00 +19°C° 0 mm 5 mps 750 mmHg 37%
13:00 +19°C° 0 mm 4 mps 750 mmHg 36%
14:00 +20°C° 0 mm 4 mps 750 mmHg 35%
15:00 +18°C° 0 mm 4 mps 750 mmHg 40%
16:00 +17°C° 0 mm 3 mps 750 mmHg 44%
17:00 +14°C° 0 mm 3 mps 750 mmHg 48%
18:00 +14°C° 0 mm 3 mps 750 mmHg 49%
19:00 +13°C° 0 mm 4 mps 750 mmHg 49%
20:00 +13°C° 0 mm 4 mps 750 mmHg 49%
21:00 +12°C° 0 mm 4 mps 750 mmHg 50%
22:00 +12°C° 0 mm 4 mps 750 mmHg 50%
23:00 +12°C° 0 mm 4 mps 751 mmHg 51%

5 October, Monday

Time Temperature Precipitation Wind Pressure Humidity
00:00 +11°C° 0 mm 3 mps 751 mmHg 52%
01:00 +11°C° 0 mm 3 mps 751 mmHg 52%
02:00 +11°C° 0 mm 3 mps 751 mmHg 53%
03:00 +10°C° 0 mm 3 mps 751 mmHg 53%
04:00 +10°C° 0 mm 3 mps 751 mmHg 53%
05:00 +10°C° 0 mm 3 mps 751 mmHg 53%
06:00 +10°C° 0 mm 3 mps 751 mmHg 51%
07:00 +11°C° 0 mm 4 mps 751 mmHg 48%
08:00 +12°C° 0 mm 4 mps 751 mmHg 46%
09:00 +14°C° 0 mm 4 mps 751 mmHg 42%
10:00 +15°C° 0 mm 4 mps 751 mmHg 38%
11:00 +17°C° 0 mm 5 mps 752 mmHg 33%
12:00 +17°C° 0 mm 5 mps 751 mmHg 34%
13:00 +19°C° 0 mm 5 mps 751 mmHg 34%
14:00 +19°C° 0 mm 5 mps 750 mmHg 34%
15:00 +18°C° 0 mm 4 mps 750 mmHg 39%
16:00 +15°C° 0 mm 4 mps 750 mmHg 45%
17:00 +14°C° 0 mm 3 mps 750 mmHg 50%
18:00 +14°C° 0 mm 3 mps 750 mmHg 53%
19:00 +13°C° 0 mm 3 mps 750 mmHg 55%
20:00 +13°C° 0 mm 4 mps 750 mmHg 58%
21:00 +12°C° 0 mm 4 mps 749 mmHg 59%
22:00 +12°C° 0 mm 4 mps 749 mmHg 60%
23:00 +12°C° 0 mm 4 mps 749 mmHg 62%

6 October, Tuesday

Time Temperature Precipitation Wind Pressure Humidity
00:00 +12°C° 0 mm 4 mps 749 mmHg 61%
01:00 +12°C° 0 mm 4 mps 749 mmHg 60%
02:00 +12°C° 0 mm 4 mps 749 mmHg 59%
03:00 +11°C° 0 mm 4 mps 749 mmHg 60%
04:00 +11°C° 0 mm 4 mps 749 mmHg 60%
05:00 +11°C° 0 mm 4 mps 749 mmHg 61%
06:00 +12°C° 0 mm 5 mps 749 mmHg 59%
07:00 +12°C° 0 mm 5 mps 748 mmHg 57%
08:00 +13°C° 0 mm 5 mps 748 mmHg 55%
09:00 +15°C° 0 mm 6 mps 748 mmHg 50%
10:00 +16°C° 0 mm 6 mps 748 mmHg 45%
11:00 +19°C° 0 mm 6 mps 748 mmHg 40%
12:00 +19°C° 0 mm 6 mps 748 mmHg 39%
13:00 +20°C° 0 mm 6 mps 747 mmHg 39%
14:00 +20°C° 0 mm 6 mps 747 mmHg 38%
15:00 +19°C° 0 mm 5 mps 747 mmHg 42%
16:00 +18°C° 0 mm 4 mps 747 mmHg 46%
17:00 +16°C° 0 mm 3 mps 746 mmHg 50%
18:00 +16°C° 0 mm 3 mps 746 mmHg 51%
19:00 +14°C° 0 mm 3 mps 747 mmHg 51%
20:00 +14°C° 0 mm 4 mps 747 mmHg 52%
21:00 +13°C° 0 mm 4 mps 747 mmHg 53%
22:00 +13°C° 0 mm 4 mps 747 mmHg 54%
23:00 +12°C° 0 mm 4 mps 747 mmHg 55%

7 October, Wednesday

Time Temperature Precipitation Wind Pressure Humidity
00:00 +12°C° 0 mm 4 mps 747 mmHg 55%
01:00 +12°C° 0 mm 3 mps 747 mmHg 56%
02:00 +11°C° 0 mm 3 mps 746 mmHg 56%
03:00 +11°C° 0 mm 3 mps 746 mmHg 56%
04:00 +10°C° 0 mm 3 mps 747 mmHg 56%
05:00 +10°C° 0 mm 3 mps 747 mmHg 56%
06:00 +11°C° 0 mm 3 mps 747 mmHg 54%
07:00 +12°C° 0 mm 3 mps 747 mmHg 52%
08:00 +13°C° 0 mm 4 mps 747 mmHg 51%
09:00 +14°C° 0 mm 4 mps 747 mmHg 47%
10:00 +17°C° 0 mm 4 mps 747 mmHg 44%
11:00 +19°C° 0 mm 4 mps 747 mmHg 41%
12:00 +19°C° 0 mm 4 mps 747 mmHg 39%
13:00 +20°C° 0 mm 4 mps 747 mmHg 37%
14:00 +21°C° 0 mm 4 mps 747 mmHg 36%
15:00 +19°C° 0 mm 3 mps 747 mmHg 40%
16:00 +17°C° 0 mm 3 mps 747 mmHg 44%
17:00 +16°C° 0 mm 3 mps 747 mmHg 48%
18:00 +15°C° 0 mm 2 mps 747 mmHg 49%
19:00 +14°C° 0 mm 2 mps 747 mmHg 50%
20:00 +13°C° 0 mm 2 mps 747 mmHg 50%
21:00 +13°C° 0 mm 2 mps 747 mmHg 50%
22:00 +12°C° 0 mm 2 mps 748 mmHg 50%
23:00 +12°C° 0 mm 2 mps 748 mmHg 50%
Show more

We Need Your Consent

Meteoprog and our Service Providers may store and access personal data such as cookies, device identifiers or other similar technologies on your device and process such data to personalise content and ads, as well as provide social media features and to analyse the traffic.

  • Store and/or access information on your device

    Cookies, device identifiers or other information can be stored or accessed on your device for the purposes indicated above.

  • Personalised ads and content, ad and content measurement, audience insights, and products development

    Ads and content can be personalised based on a profile. More data can be added to better personalise ads and content. Ad and content performance can be measured. Insights about the audience who saw the ads and content can be derived. Such data can be used to develop or improve user’s experience, systems and software.

By clicking ‘I Agree’ you will allow the use of indicated cookies, device identifiers, web beacons or other similar technologies. Your settings can be changed in the browser on your device.

For certain purposes, legitimate interests may be relied on, rather than consent. You can read more about this in our Privacy and Cookie Policy.